Regional Weather Roundup
Issued by NWS

Home | Current Version | Previous Version | Graphics & Text | Print | Product List | Glossary On
Versions: 1 2 3 4 5 6 7 8 9 10 11 12 13 14 15 16 17 18 19 20 21 22 23 24 25 26 27 28 29 30 31 32 33 34 35 36 37 38 39 40 41 42 43 44 45 46 47 48 49 50
000
ASUS45 KTFX 041310
RWRMT
MONTANA REGIONAL WEATHER ROUNDUP
NATIONAL WEATHER SERVICE GREAT FALLS MT
700 AM MDT WED MAY 04 2016

NOTE: "FAIR" INDICATES FEW OR NO CLOUDS BELOW 12000 FEET WITH NO
SIGNIFICANT WEATHER AND/OR OBSTRUCTIONS TO VISIBILITY.

MTZ001>007-043-041400-
WEST OF THE DIVIDE

CITY           SKY/WX    TMP DP  RH WIND       PRES   REMARKS
KALISPELL      CLEAR     41  40  96 S3        30.02R
MISSOULA       PTCLDY    44  37  76 CALM      30.09R
BUTTE          CLEAR     33  27  78 SE3       30.17R
MULLAN PASS    MOCLDY    51  30  44 CALM      30.12R
PLAINS           N/A     41  36  82 CALM      30.03
$$

MTZ008-052>055-041400-
SOUTHWEST MONTANA

CITY           SKY/WX    TMP DP  RH WIND       PRES   REMARKS
BOZEMAN        CLEAR     42  33  70 E3        30.13R
DILLON         CLEAR     44  29  55 S12       30.15R
ENNIS          CLEAR     41  28  60 SE7       30.22R
TWIN BRIDGES     N/A     41  26  55 E6        30.12
$$

MTZ009-010-012-014-046-048-049-054-041400-
EAST SLOPES AND CENTRAL MONTANA

CITY           SKY/WX    TMP DP  RH WIND       PRES   REMARKS
CUT BANK       CLEAR     45  36  70 W7        30.00S
GREAT FALLS    CLEAR     48  37  65 S3        30.01S
MALMSTROM AFB  CLEAR     47  42  85 SW3       30.02R
HELENA         CLEAR     47  34  60 CALM      30.09R
$$

MTZ011-013-016-021-045-047-050-051-041400-
NORTH CENTRAL MONTANA

CITY           SKY/WX    TMP DP  RH WIND       PRES   REMARKS
HAVRE          CLEAR     44  42  93 SW5       29.99R
LEWISTOWN      CLEAR     50  37  61 MISG      30.05S
N BAR RANCH      N/A     55  36  47 VRB5      30.09S
$$

MTZ017>020-022>027-061-062-041400-
NORTHEAST MONTANA

CITY           SKY/WX    TMP DP  RH WIND       PRES   REMARKS
GLASGOW        SUNNY     52  40  63 E12       30.01F
JORDAN           N/A     46  43  89 CALM      30.03F
SIDNEY         SUNNY     46  41  81 S7        30.08S
WOLF POINT     SUNNY     49  41  74 NE5       30.05R
SCOBEY           N/A     47  33  58 CALM      30.02
$$

MTZ028>42-056>058-041400-
SOUTHCENTRAL AND SOUTHEAST MONTANA

CITY           SKY/WX    TMP DP  RH WIND       PRES   REMARKS
BAKER          SUNNY     50  40  68 E5        30.12R
BILLINGS       CLEAR     51  38  60 SW9       30.08S
LIVINGSTON     CLEAR     41  31  67 SW3       30.13R
MILES CITY     SUNNY     52  40  63 SE9       30.07S
ROUNDUP          N/A     44  35  70 S9        29.97
$$

REGIONAL REPORTS...DAKOTAS

CITY           SKY/WX    TMP DP  RH WIND       PRES   REMARKS
WILLISTON      SUNNY     51  44  77 CALM      30.07R
MINOT          MOSUNNY   51  33  50 SE6       30.07F
DICKINSON      MOSUNNY   51  36  56 SW5       30.09S
BEACH            N/A     50  45  81 S7        30.13S
CROSBY           N/A     50  39  66 S15       30.06S
TIOGA            N/A     48  39  71 CALM      30.13S
WATFORD CITY     N/A     48  41  76 CALM      30.09R
BISMARCK       SUNNY     43  37  79 CALM      30.13R
GRAND FORKS    MOSUNNY   44  36  73 NW9       30.10R
FARGO          SUNNY     45  33  63 N9        30.08R
BUFFALO SD       N/A     52  40  63 CALM      30.08R
RAPID CITY     SUNNY     51  39  63 NW6       30.16R
$$

REGIONAL REPORTS...WYOMING/IDAHO/WASHINGTON

CITY           SKY/WX    TMP DP  RH WIND       PRES   REMARKS
GILLETTE       SUNNY     50  39  66 SE8       30.15S
SHERIDAN       SUNNY     45  38  76 CALM      30.11S
BUFFALO WY     SUNNY     54  35  48 CALM      30.16R
CODY           CLEAR     54  28  37 SW7G18    30.16R
YELLOWSTONE LA   N/A     27  22  81 CALM      30.34R
IDAHO FALLS    CLOUDY    39  31  72 N7        30.17R
SALMON         CLOUDY    37  28  70 CALM      30.14R
BOISE          PTCLDY    60  33  36 SE9       29.98R
SPOKANE        CLOUDY    53  44  71 SE10      29.98S
$$

REGIONAL REPORTS...ALBERTA

CITY           SKY/WX    TMP DP  RH WIND       PRES   REMARKS
EDMONTON       CLEAR     55  36  47 SW8       29.79S
CALGARY        PTCLDY    50  30  46 S5        29.94S
LETHBRIDGE     PTCLDY    48  37  66 SW3       29.96R
MEDICINE HAT   CLEAR     54  43  66 SW7       29.92S
WATERTON GATE    N/A     50  36  57 S9          N/A
CARDSTON         N/A     48  36  61 S2          N/A
MILK RIVER       N/A     43  39  87 NW5         N/A
ONEFOUR          N/A     54  43  66 E9          N/A
$$

REGIONAL REPORTS...SASKATCHEWAN

CITY           SKY/WX    TMP DP  RH WIND       PRES   REMARKS
SWIFT CURRENT  SUNNY     59  39  47 S15G29    29.94F
REGINA         SUNNY     48  36  61 SE9       29.98S
SASKATOON      SUNNY     57  41  54 S10       29.89S
CYPRESS HILLS    N/A     57  36  44 SW6         N/A
VAL MARIE        N/A     48  41  76 SE2         N/A
ROCKGLEN         N/A     54  39  58 S6          N/A
ASSINIBOIA       N/A     52  41  66 SW5         N/A
$$



USA.gov is the U.S. government's official web portal to all federal, state and local government web resources and services.